Starlink 11191

operational
NORAD ID: 60410 Int'l Des: 2024-141 Owner: SPXS Country: US Constellation: starlink
LEOCIRCULAR

关于 Starlink 11191

正在加载描述...

实时位置

正在加载3D地球...

即将过境

高度历史

Altitude vs Time

uPlot chart will show altitude changes over time

两行轨道根数

1 60410U 24141N 25353.65359231 .00000416 00000-0 82940-5 0 9994
2 60410 53.1603 120.7136 0001083 88.6113 271.5029 15.69709669 79178
Epoch: Dec 19, 2025 • Age: 16 hours

当前状态

高度 365.4 km
速度 7.70 km/s
星下点 52.64°N, 20.31°E
发射日期 Aug 10, 2024
运行时间 1.3 years
类型 internet

技术详情

分类 Payload
质量 960.00 kg
干质量 910.00 kg
总质量 960.00 kg
长度 0.30 m
直径 4.10 m
跨度 29.00 m
形状 Box + pan
制造商 SPXS
平台类型 Starlink V2MD
阶段状态 In Orbit
所有者/国家 SPXS/US

大型星座

Loading constellations...